Regional Weather Roundup
Issued by NWS

Home | Current Version | Previous Version | Graphics & Text | Print | Product List | Glossary On
Versions: 1 2 3 4 5 6 7 8 9 10 11 12 13 14 15 16 17 18 19 20 21 22 23 24 25 26 27 28 29 30 31 32 33 34 35 36 37 38 39 40 41 42 43 44 45 46 47 48 49 50
102
ASUS45 KABQ 280110
RWRNM
NEW MEXICO REGIONAL WEATHER ROUNDUP
NATIONAL WEATHER SERVICE ALBUQUERQUE NM
700 PM MDT SAT MAY 27 2017

NOTE: "FAIR" MEANS FEW OR NO CLOUDS BELOW 12,000 FEET AGL WITH NO
       SIGNIFICANT WEATHER OR OBSTRUCTIONS TO VISION.

      THIS PRODUCT IS RELEASED AS TWO VERSIONS.  ONE VERSION NEAR
      THE TOP OF THE HOUR CONTAINING PRELIMINARY DATA FROM ALBUQUERQUE
      AND OTHER STATIONS.  A FINAL VERSION WITH ADDITIONAL DATA IS
      ISSUED ABOUT 10 MINUTES AFTER THE HOUR.

NMZ501-503-504-510>518-280200-
NORTHWEST PLATEAU/NORTHCENTRAL MOUNTAINS

CITY           SKY/WX    TMP DP  RH WIND       PRES   REMARKS
FARMINGTON     FAIR      73  18  12 W26G33    30.07R
LOS ALAMOS     FAIR      69  17  13 W9G20     30.16R
SANTA FE       FAIR      76  16  10 NW13G21   30.07R
TAOS           FAIR      68  16  13 W21G29    30.15R
ANGEL FIRE     FAIR      61  20  20 W13G21    30.21R

$$
NMZ402-403-502-505>509-280200-
WESTCENTRAL MOUNTAINS/SOUTHWEST MOUNTAINS

CITY           SKY/WX    TMP DP  RH WIND       PRES   REMARKS
GALLUP         FAIR      73  19  13 W14       30.13S
GRANTS         FAIR      74  14  10 W10G20    30.14S
SILVER CITY    FAIR      80   8   6 W14G24    30.08S

$$
NMZ407-409-411-412-280200-
SOUTHERN DESERTS

CITY           SKY/WX    TMP DP  RH WIND       PRES   REMARKS
DEMING         FAIR      87  11   6 NW14G23   29.98F
LAS CRUCES     FAIR      88  18   7 W17G24    30.00S
HOLLOMAN AFB   FAIR      88  -2   3 SW23      29.98F
ALAMOGORDO     FAIR      86   5   4 SW16G22   29.97S
T OR C         LGT RAIN  87  -2   3 SW20G25   29.97S

$$
NMZ519>523-280200-
CENTRAL VALLEYS/CENTRAL HIGHLANDS

CITY           SKY/WX    TMP DP  RH WIND       PRES   REMARKS
ALBUQUERQUE    FAIR      81   7   6 W13G24    30.01S
DOUBLE EAGLE   MOSUNNY   77  19  11 W10       30.06R
MORIARTY ARPT  FAIR      76  17  10 W14G21    30.08R
CLINES CORNERS FAIR      72  13  10 W26G36    30.11S
BELEN          FAIR      82  10   6 NW13G18   30.01S
SOCORRO        FAIR      83  13   7 N13       29.96S

$$
NMZ524>526-539-540-280200-
SOUTHCENTRAL MOUNTAINS

CITY           SKY/WX    TMP DP  RH WIND       PRES   REMARKS
RUIDOSO        FAIR      73   9   8 SW20      30.14R

$$
NMZ527>531-280200-
NORTHEAST HIGHLANDS/NORTHEAST PLAINS

CITY           SKY/WX    TMP DP  RH WIND       PRES   REMARKS
LAS VEGAS      FAIR      73  11   9 W18       30.08R
RATON          FAIR      56  43  61 NE26G36   30.12R
CLAYTON        FAIR      63  50  62 NE20G29   30.06R

$$
NMZ532>537-280200-
EASTCENTRAL PLAINS

CITY           SKY/WX    TMP DP  RH WIND       PRES   REMARKS
SANTA ROSA     FAIR      83  17   8 W13       29.94S
TUCUMCARI      FAIR      87  16   7 W14       29.86S
CANNON AFB     FAIR      88   9   5 W14       29.92R
CLOVIS AIRPORT FAIR      88  25  10 W9G18     29.91S

$$
NMZ028-029-538-280200-
SOUTHEAST PLAINS

CITY           SKY/WX    TMP DP  RH WIND       PRES   REMARKS
ROSWELL        FAIR      93   9   4 W21       29.86S
ARTESIA        FAIR      93  14   5 W16G28    29.88R
CARLSBAD       FAIR      92   9   4 W23G31    29.87R
HOBBS          FAIR      91   7   4 SW20      29.90S


$$




USA.gov is the U.S. government's official web portal to all federal, state and local government web resources and services.